This is the latest recevied weather packets stored in our database for station/object W4TJP. If no packets are shown the sender has not sent any weather packets the latest 10 day(s).
| Time | Temp. | Humidity | Pressure | Rain* | Wind** | Luminosity | Snow |
|---|---|---|---|---|---|---|---|
| 1777909504 | 21.11° C | 56% | 1014.7 hPa | 0 mm | - | 635 W/m² | - |
| 1777909202 | 21.11° C | 56% | 1014.7 hPa | 0 mm | - | 733 W/m² | - |
| 1777908900 | 20.56° C | 57% | 1014.8 hPa | 0 mm | - | 684 W/m² | - |
| 1777908597 | 20.56° C | 57% | 1015.2 hPa | 0 mm | - | 747 W/m² | - |
| 1777908294 | 20.56° C | 56% | 1014.8 hPa | 0 mm | - | 682 W/m² | - |
| 1777907989 | 20.56° C | 58% | 1015.1 hPa | 0 mm | - | 650 W/m² | - |
| 1777907686 | 20° C | 55% | 1014.9 hPa | 0 mm | - | 680 W/m² | - |
| 1777907381 | 20° C | 58% | 1014.9 hPa | 0 mm | - | 591 W/m² | - |
| 1777907078 | 20.56° C | 55% | 1015.1 hPa | 0 mm | - | 715 W/m² | - |
| 1777906775 | 20° C | 55% | 1014.9 hPa | 0 mm | - | 693 W/m² | - |
| 1777906472 | 20° C | 56% | 1015.3 hPa | 0 mm | - | 588 W/m² | - |
| 1777906169 | 20° C | 56% | 1014.9 hPa | 0 mm | - | 597 W/m² | - |
| 1777905865 | 20° C | 56% | 1015.4 hPa | 0 mm | - | 615 W/m² | - |
| 1777905562 | 20° C | 56% | 1015.1 hPa | 0 mm | - | 603 W/m² | - |
| 1777905259 | 19.44° C | 56% | 1015.5 hPa | 0 mm | - | 588 W/m² | - |
| 1777904956 | 19.44° C | 55% | 1015.5 hPa | 0 mm | - | 570 W/m² | - |
| 1777904654 | 19.44° C | 56% | 1015.3 hPa | 0 mm | - | 523 W/m² | - |
| 1777904351 | 18.89° C | 56% | 1015.3 hPa | 0 mm | - | 523 W/m² | - |
| 1777904048 | 18.89° C | 58% | 1015.5 hPa | 0 mm | - | 544 W/m² | - |
| 1777903744 | 18.33° C | 57% | 1015.5 hPa | 0 mm | - | 530 W/m² | - |
| 1777903440 | 17.78° C | 59% | 1015.5 hPa | 0 mm | - | 497 W/m² | - |
| 1777903136 | 17.78° C | 59% | 1015.5 hPa | 0 mm | - | 463 W/m² | - |
| 1777902833 | 17.22° C | 61% | 1015.7 hPa | 0 mm | - | 371 W/m² | - |
| 1777902531 | 17.22° C | 63% | 1015.6 hPa | 0 mm | - | 259 W/m² | - |
| 1777902227 | 17.22° C | 59% | 1015.7 hPa | 0 mm | - | 216 W/m² | - |
* Rain latest hour (hover to see other rain measurements)
** Current wind speed in m/s (hover to see current wind gust speed)